Luverne, MN

5:27 AM CST on November 22, 2017 (GMT -0600)
Luverne

Weather History for KLYV - March, 2014

Change the Weather History Date:

Monday, March 10, 2014

  Actual Average (KPQN) Record (KPQN)
Temperature  
Mean Temperature 42 °F -  
Max Temperature 53 °F 30 °F 64 °F (2012)
Min Temperature 32 °F 16 °F -5 °F (2002)
Degree Days  
Heating Degree Days 22    
Moisture  
Dew Point 36 °F    
Average Humidity 76    
Maximum Humidity 93    
Minimum Humidity 61    
Precipitation  
Precipitation 0.00 in - - ()
Sea Level Pressure  
Sea Level Pressure 29.72 in    
Wind  
Wind Speed 6 mph (NW)    
Max Wind Speed 14 mph    
Max Gust Speed -    
Visibility 10 miles    
Events      
Averages and records for this station are not official NWS values.
T = Trace of Precipitation, MM = Missing Value Source: NWS Daily Summary

Daily Weather History Graph

Daily Weather History Graph

Search for Another Location

Airport or City:

Trip Planner

Search our weather history database for the weather conditions in past years. The results will help you decide how hot, cold, wet, or windy it might be!

Date:

Astronomy

Mar. 10, 2014 Rise Set
Actual Time 7:45 AM CDT 7:25 PM CDT
Civil Twilight 7:17 AM CDT 7:53 PM CDT
Nautical Twilight 6:44 AM CDT 8:26 PM CDT
Astronomical Twilight 6:10 AM CDT 9:00 PM CDT
Moon 2:02 PM CDT (3/10) 4:06 AM CDT (3/10)
Length of Visible Light 12h 36m
Length of Day
11h 39m
Waxing Gibbous, 70% of the Moon is Illuminated
Mar 10
Waxing Gibbous
Mar 16
Full
Mar 23
Last Quarter
Mar 30
New
Apr 7
First Quarter

Hourly Weather History & Observations

Time (CDT) Temp. Windchill Dew Point Humidity Pressure Visibility Wind Dir Wind Speed Gust Speed Precip Events Conditions
12:15 AM 44.6 °F 40.2 °F 33.8 °F 66% 29.72 in 10.0 mi West 8.1 mph - N/A   Clear
12:34 AM 41.0 °F 35.2 °F 33.8 °F 76% 29.71 in 10.0 mi West 9.2 mph - N/A   Clear
12:55 AM 42.8 °F 38.0 °F 32.0 °F 66% 29.72 in 10.0 mi West 8.1 mph - N/A   Clear
1:14 AM 44.6 °F 39.7 °F 32.0 °F 61% 29.72 in 10.0 mi WNW 9.2 mph - N/A   Clear
1:35 AM 39.2 °F 32.0 °F 32.0 °F 75% 29.72 in 10.0 mi WNW 11.5 mph - N/A   Clear
1:55 AM 41.0 °F 34.7 °F 32.0 °F 70% 29.72 in 10.0 mi WNW 10.4 mph - N/A   Clear
2:14 AM 41.0 °F 33.9 °F 32.0 °F 70% 29.72 in 10.0 mi WNW 12.7 mph - N/A   Clear
2:35 AM 41.0 °F 34.3 °F 32.0 °F 70% 29.73 in 10.0 mi WNW 11.5 mph - N/A   Clear
2:54 AM 44.6 °F 38.1 °F 32.0 °F 61% 29.72 in 10.0 mi WNW 13.8 mph - N/A   Clear
3:15 AM 41.0 °F 33.9 °F 32.0 °F 70% 29.73 in 10.0 mi WNW 12.7 mph - N/A   Clear
3:35 AM 42.8 °F 37.5 °F 32.0 °F 66% 29.72 in 10.0 mi WNW 9.2 mph - N/A   Clear
3:54 AM 41.0 °F 34.7 °F 32.0 °F 70% 29.71 in 10.0 mi WNW 10.4 mph - N/A   Clear
4:15 AM 41.0 °F - 32.0 °F 70% 29.71 in 10.0 mi Calm Calm - N/A   Clear
4:35 AM 41.0 °F - 32.0 °F 70% 29.72 in 10.0 mi Calm Calm - N/A   Clear
4:54 AM 41.0 °F - 32.0 °F 70% 29.72 in 10.0 mi Calm Calm - N/A   Clear
5:15 AM 37.4 °F - 32.0 °F 81% 29.72 in 10.0 mi Calm Calm - N/A   Clear
5:34 AM 37.4 °F 34.9 °F 32.0 °F 81% 29.72 in 10.0 mi West 3.5 mph - N/A   Clear
5:54 AM 37.4 °F 34.9 °F 32.0 °F 81% 29.72 in 10.0 mi WNW 3.5 mph - N/A   Clear
6:15 AM 37.4 °F - 32.0 °F 81% 29.72 in 10.0 mi Calm Calm - N/A   Clear
6:35 AM 35.6 °F - 32.0 °F 87% 29.72 in 10.0 mi Calm Calm - N/A   Clear
6:54 AM 33.8 °F - 32.0 °F 93% 29.73 in 10.0 mi Calm Calm - N/A   Clear
7:15 AM 35.6 °F - 32.0 °F 87% 29.73 in 10.0 mi Calm Calm - N/A   Clear
7:34 AM 33.8 °F - 32.0 °F 93% 29.74 in 10.0 mi Calm Calm - N/A   Clear
7:54 AM 32.0 °F 27.5 °F 30.2 °F 93% 29.74 in 10.0 mi WSW 4.6 mph - N/A   Clear
8:15 AM 33.8 °F 28.6 °F 32.0 °F 93% 29.74 in 10.0 mi SW 5.8 mph - N/A   Clear
8:35 AM 35.6 °F 31.7 °F 32.0 °F 87% 29.75 in 10.0 mi WSW 4.6 mph - N/A   Clear
8:54 AM 39.2 °F - 33.8 °F 81% 29.75 in 10.0 mi Calm Calm - N/A   Clear
9:15 AM 42.8 °F 37.0 °F 33.8 °F 70% 29.75 in 10.0 mi West 10.4 mph - N/A   Clear
9:35 AM 41.0 °F 33.9 °F 33.8 °F 76% 29.75 in 10.0 mi West 12.7 mph - N/A   Clear
9:54 AM 41.0 °F 33.9 °F 33.8 °F 76% 29.76 in 10.0 mi WNW 12.7 mph - N/A   Clear
10:15 AM 41.0 °F 33.9 °F 33.8 °F 76% 29.76 in 10.0 mi WNW 12.7 mph - N/A   Clear
10:35 AM 42.8 °F 36.2 °F 35.6 °F 76% 29.75 in 10.0 mi WNW 12.7 mph - N/A   Clear
10:54 AM 42.8 °F 36.6 °F 35.6 °F 76% 29.75 in 10.0 mi WNW 11.5 mph - N/A   Clear
11:15 AM 44.6 °F 40.2 °F 37.4 °F 76% 29.75 in 10.0 mi NW 8.1 mph - N/A   Clear
11:34 AM 44.6 °F 41.4 °F 37.4 °F 76% 29.75 in 10.0 mi WNW 5.8 mph - N/A   Clear
11:54 AM 46.4 °F 45.2 °F 37.4 °F 71% 29.75 in 10.0 mi NW 3.5 mph - N/A   Clear
12:14 PM 46.4 °F - 41.0 °F 81% 29.75 in 10.0 mi Calm Calm - N/A   Clear
12:35 PM 48.2 °F - 41.0 °F 76% 29.75 in 10.0 mi Calm Calm - N/A   Clear
12:54 PM 50.0 °F - 41.0 °F 71% 29.75 in 10.0 mi Calm Calm - N/A   Clear
1:14 PM 50.0 °F - 41.0 °F 71% 29.75 in 10.0 mi Calm Calm - N/A   Clear
1:35 PM 51.8 °F - 42.8 °F 71% 29.74 in 10.0 mi North 4.6 mph - N/A   Clear
1:54 PM 51.8 °F - 42.8 °F 71% 29.73 in 10.0 mi North 5.8 mph - N/A   Clear
2:14 PM 53.6 °F - 41.0 °F 62% 29.72 in 10.0 mi North 4.6 mph - N/A   Clear
2:35 PM 53.6 °F - 41.0 °F 62% 29.71 in 10.0 mi North 5.8 mph - N/A   Clear
2:54 PM 53.6 °F - 41.0 °F 62% 29.71 in 10.0 mi NNE 5.8 mph - N/A   Clear
3:14 PM 51.8 °F - 42.8 °F 71% 29.71 in 10.0 mi Calm Calm - N/A   Clear
3:35 PM 51.8 °F - 41.0 °F 67% 29.71 in 10.0 mi Calm Calm - N/A   Clear
3:54 PM 51.8 °F - 41.0 °F 67% 29.71 in 10.0 mi Calm Calm - N/A   Clear
4:14 PM 51.8 °F - 42.8 °F 71% 29.70 in 10.0 mi Calm Calm - N/A   Clear
4:35 PM 51.8 °F - 42.8 °F 71% 29.69 in 10.0 mi Calm Calm - N/A   Clear
4:54 PM 51.8 °F - 42.8 °F 71% 29.69 in 10.0 mi WNW 3.5 mph - N/A   Clear
5:14 PM 51.8 °F - 42.8 °F 71% 29.69 in 10.0 mi Calm Calm - N/A   Clear
5:35 PM 50.0 °F - 42.8 °F 76% 29.69 in 10.0 mi NW 5.8 mph - N/A   Clear
5:55 PM 50.0 °F - 41.0 °F 71% 29.69 in 10.0 mi NW 3.5 mph - N/A   Clear
6:14 PM 50.0 °F - 41.0 °F 71% 29.69 in 10.0 mi Calm Calm - N/A   Clear
6:35 PM 46.4 °F 44.3 °F 41.0 °F 81% 29.70 in 10.0 mi North 4.6 mph - N/A   Clear
6:54 PM 46.4 °F 45.2 °F 39.2 °F 76% 29.71 in 10.0 mi North 3.5 mph - N/A   Clear
7:15 PM 44.6 °F 43.1 °F 37.4 °F 76% 29.70 in 10.0 mi ENE 3.5 mph - N/A   Clear
7:34 PM 44.6 °F 43.1 °F 37.4 °F 76% 29.70 in 10.0 mi NNE 3.5 mph - N/A   Clear
7:55 PM 42.8 °F 41.1 °F 37.4 °F 81% 29.70 in 10.0 mi NE 3.5 mph - N/A   Clear
8:15 PM 42.8 °F 41.1 °F 37.4 °F 81% 29.71 in 10.0 mi NNE 3.5 mph - N/A   Clear
8:34 PM 42.8 °F - 37.4 °F 81% 29.71 in 10.0 mi Calm Calm - N/A   Clear
8:55 PM 41.0 °F 39.0 °F 37.4 °F 87% 29.72 in 10.0 mi NNE 3.5 mph - N/A   Clear
9:15 PM 41.0 °F 38.0 °F 37.4 °F 87% 29.72 in 10.0 mi NNE 4.6 mph - N/A   Clear
9:34 PM 41.0 °F 36.4 °F 35.6 °F 81% 29.70 in 10.0 mi NE 6.9 mph - N/A   Clear
9:55 PM 39.2 °F 33.0 °F 35.6 °F 87% 29.68 in 10.0 mi NNE 9.2 mph - N/A   Scattered Clouds
10:15 PM 39.2 °F 33.0 °F 35.6 °F 87% 29.67 in 10.0 mi NE 9.2 mph - N/A   Mostly Cloudy
10:34 PM 39.2 °F 34.2 °F 35.6 °F 87% 29.68 in 10.0 mi NE 6.9 mph - N/A   Overcast
10:55 PM 39.2 °F 35.0 °F 35.6 °F 87% 29.68 in 10.0 mi NE 5.8 mph - N/A   Overcast
11:14 PM 39.2 °F 37.0 °F 35.6 °F 87% 29.67 in 10.0 mi ENE 3.5 mph - N/A   Overcast
11:34 PM 41.0 °F 37.1 °F 37.4 °F 87% 29.67 in 10.0 mi NE 5.8 mph - N/A   Overcast
11:54 PM 41.0 °F 37.1 °F 37.4 °F 87% 29.68 in 10.0 mi NE 5.8 mph - N/A   Overcast